sat.trackr.live / text

‹ back to catalog

KUIPER-00300

NORAD 68597 · 2026-072AA

PAYLOAD ACTIVE UNKNOWN

§ Identity

Operator
Country
US
Launch date
2026-04-04
Launch site
AFETR
Launch vehicle
Mass (kg)
RCS (m²)

External: N2YO · Heavens-Above · Gunter

§ Orbital elements

Epoch: 2026-09-20T00:19:37.719264Z

Period
97.30 min
Inclination
51.9028°
Eccentricity
0.0000828
Mean motion
14.79937811 rev/d
Perigee alt
628.9 km
Apogee alt
630.1 km
Semi-major
7,007.7 km
B*
2.7476e-4
RAAN
126.3390°
Arg perigee
110.9273°
Mean anomaly
249.1778°
Rev number
2,530

§ Raw data

KUIPER-003001 68597U 26072AA  26263.01363101  .00001874  00000+0  27476-3 0  99942 68597  51.9028 126.3390 0000828 110.9273 249.1778 14.79937811 25305

JSON: /api/v1/satellites/68597 · /tle

For live sub-satellite position, see the globe view (requires WebGL).

§ Visibility from observer

Set your observer location to see the next 7 days of passes ≥ 10°. The values pass through the URL so the page stays shareable.

No JS? Fill the form by hand. The geolocation button needs JavaScript.